User: anonymous   Login
Location: Reading
(52.0000°N, 0.0000°E)
Time: 02:40:19
(UTC+00:00)
Language:

Iridium 41 - Orbit

View from above orbital plane
View from above orbital plane
View from above satellite
View from above satellite

Ground track
Ground track

The orbit data is extracted from the following two-line orbital elements,

1 25040U 97069B   16040.57369762  .00000032  00000-0  43220-5 0  9999
2 25040  86.3943 228.2280 0002139  94.8786 295.8334 14.34217958955565
Epoch (UTC): 09 February 2016 13:46:07
Eccentricity: 0.0002139
inclination: 86.3943°
perigee height: 776 km
apogee height: 779 km
right ascension of ascending node: 228.2280°
argument of perigee: 94.8786°
revolutions per day: 14.34217958
mean anomaly at epoch: 295.8334°
orbit number at epoch: 95556

The dashed part of the orbit path shows where the satellite is in the earth's shadow,  

DLR